Location: Observatoire
(46.1952°N, 5.3391°E)
Time: 23:11:10
(UTC+01:00)

A-11 Canister half - Pass Details

Date: 24 February 2026
Orbit: 1525 x 1683 km, 47.3° (Epoch: 5 March)

Event Time Altitude Azimuth Distance (km) Brightness Sun altitude
Rises 17:56:21 0° 268° (W) 4,723 13.6 2.7°
Reaches altitude 10° 17:59:26 10° 269° (W) 3,725 12.9 2.2°
Maximum altitude 18:08:51 84° 358° (N) 1,538 9.1 0.6°
Drops below altitude 10° 18:18:11 10° 88° (E) 3,695 10.4 -0.9°
Enters shadow 18:20:58 - 89° (E) 4,598 10.8 -1.4°
Sets 18:21:14 0° 89° (E) 4,684 - -1.5°
